TimeEST,TemperatureF,Dew PointF,Humidity,Sea Level PressureIn,VisibilityMPH,Wind Direction,Wind SpeedMPH,Gust SpeedMPH,PrecipitationIn,Events,Conditions,WindDirDegrees,DateUTC
12:17 AM,37.4,32.0,81,29.22,10.0,SSW,18.4,26.5,N/A,,Overcast,200,2012-12-21 05:17:00
12:37 AM,37.4,32.0,81,29.22,10.0,SSW,19.6,27.6,N/A,,Overcast,200,2012-12-21 05:37:00
12:57 AM,35.6,32.0,87,29.22,10.0,SSW,11.5,18.4,N/A,,Overcast,200,2012-12-21 05:57:00
1:17 AM,35.6,32.0,87,29.22,10.0,South,13.8,18.4,N/A,Snow,Snow,180,2012-12-21 06:17:00
1:37 AM,33.8,32.0,93,29.22,5.0,South,12.7,17.3,N/A,Snow,Light Snow,170,2012-12-21 06:37:00
1:57 AM,33.8,32.0,93,29.22,3.0,South,8.1,-,N/A,Snow,Light Snow,170,2012-12-21 06:57:00
2:17 AM,33.8,32.0,93,29.22,2.5,South,11.5,-,N/A,Snow,Light Snow,170,2012-12-21 07:17:00
2:37 AM,33.8,32.0,93,29.22,5.0,SSE,8.1,-,N/A,Snow,Light Snow,160,2012-12-21 07:37:00
2:57 AM,33.8,32.0,93,29.22,10.0,SSE,4.6,-,N/A,Snow,Light Snow,150,2012-12-21 07:57:00
3:17 AM,33.8,32.0,93,29.22,1.5,SSE,4.6,-,N/A,Snow,Light Snow,160,2012-12-21 08:17:00
3:37 AM,33.8,32.0,93,29.21,3.0,SSE,5.8,-,N/A,Snow,Light Snow,160,2012-12-21 08:37:00
3:57 AM,33.8,32.0,93,29.21,3.0,SSE,5.8,-,N/A,Snow,Light Snow,160,2012-12-21 08:57:00
4:17 AM,33.8,32.0,93,29.21,5.0,SSE,4.6,-,N/A,Snow,Light Snow,160,2012-12-21 09:17:00
4:37 AM,33.8,32.0,93,29.20,4.0,SSE,3.5,-,N/A,Snow,Light Snow,160,2012-12-21 09:37:00
4:57 AM,33.8,32.0,93,29.20,5.0,Calm,Calm,-,N/A,Snow,Light Snow,0,2012-12-21 09:57:00
5:17 AM,33.8,32.0,93,29.20,7.0,Calm,Calm,-,N/A,Snow,Light Snow,0,2012-12-21 10:17:00
5:37 AM,33.8,32.0,93,29.19,3.0,Calm,Calm,-,N/A,Snow,Light Snow,0,2012-12-21 10:37:00
5:57 AM,33.8,32.0,93,29.19,4.0,Calm,Calm,-,N/A,Snow,Light Snow,0,2012-12-21 10:57:00
6:17 AM,33.8,32.0,93,29.19,4.0,Calm,Calm,-,N/A,Snow,Light Snow,0,2012-12-21 11:17:00
6:37 AM,33.8,32.0,93,29.19,3.0,Calm,Calm,-,N/A,,Overcast,0,2012-12-21 11:37:00
6:57 AM,33.8,32.0,93,29.20,2.5,Calm,Calm,-,N/A,Snow,Light Snow,0,2012-12-21 11:57:00
7:17 AM,33.8,32.0,93,29.20,1.8,Calm,Calm,-,N/A,Snow,Light Snow,0,2012-12-21 12:17:00
7:37 AM,33.8,32.0,93,29.21,2.0,Calm,Calm,-,N/A,Snow,Light Snow,0,2012-12-21 12:37:00
7:57 AM,33.8,32.0,93,29.21,1.5,Calm,Calm,-,N/A,Snow,Light Snow,0,2012-12-21 12:57:00
8:17 AM,33.8,32.0,93,29.22,0.8,Calm,Calm,-,N/A,Snow,Light Snow,0,2012-12-21 13:17:00
8:37 AM,33.8,32.0,93,29.22,0.5,Calm,Calm,-,N/A,Snow,Snow,0,2012-12-21 13:37:00
8:57 AM,33.8,32.0,93,29.23,0.8,Calm,Calm,-,N/A,Snow,Light Snow,0,2012-12-21 13:57:00
9:17 AM,33.8,32.0,93,29.24,0.8,Calm,Calm,-,N/A,Snow,Light Snow,0,2012-12-21 14:17:00
9:37 AM,33.8,33.8,100,29.25,0.8,Calm,Calm,-,N/A,Snow,Snow,0,2012-12-21 14:37:00
9:57 AM,33.8,33.8,100,29.26,0.8,WNW,3.5,-,N/A,Snow,Light Snow,300,2012-12-21 14:57:00
10:17 AM,33.8,33.8,100,29.28,1.5,WNW,11.5,16.1,N/A,Snow,Light Snow,300,2012-12-21 15:17:00
10:37 AM,33.8,32.0,93,29.30,1.8,NW,11.5,20.7,N/A,Snow,Light Snow,310,2012-12-21 15:37:00
10:57 AM,33.8,30.2,87,29.31,7.0,WNW,11.5,19.6,N/A,,Overcast,300,2012-12-21 15:57:00
11:17 AM,32.0,30.2,93,29.31,2.5,WNW,10.4,19.6,N/A,Snow,Light Snow,300,2012-12-21 16:17:00
11:37 AM,32.0,30.2,93,29.32,1.2,NW,12.7,21.9,N/A,Snow,Light Snow,310,2012-12-21 16:37:00
11:57 AM,32.0,30.2,93,29.33,1.2,NW,13.8,19.6,N/A,Snow,Light Snow,310,2012-12-21 16:57:00
12:17 PM,32.0,30.2,93,29.34,4.0,NW,12.7,18.4,N/A,,Overcast,310,2012-12-21 17:17:00
12:37 PM,32.0,28.4,87,29.36,5.0,WNW,12.7,21.9,N/A,,Overcast,300,2012-12-21 17:37:00
12:57 PM,32.0,28.4,87,29.37,4.0,NW,13.8,23.0,N/A,Snow,Light Snow,320,2012-12-21 17:57:00
1:17 PM,32.0,28.4,87,29.39,0.5,WNW,13.8,23.0,N/A,Snow,Light Snow,300,2012-12-21 18:17:00
1:37 PM,30.2,28.4,93,29.40,1.8,NW,16.1,23.0,N/A,Snow,Light Snow,310,2012-12-21 18:37:00
1:57 PM,30.2,26.6,86,29.41,2.5,NW,16.1,24.2,N/A,Snow,Light Snow,310,2012-12-21 18:57:00
2:17 PM,30.2,26.6,86,29.42,1.2,NW,16.1,24.2,N/A,Snow,Light Snow,310,2012-12-21 19:17:00
2:37 PM,30.2,26.6,86,29.44,1.2,NW,13.8,24.2,N/A,Snow,Light Snow,310,2012-12-21 19:37:00
2:57 PM,30.2,26.6,86,29.45,1.5,NW,17.3,25.3,N/A,Snow,Light Snow,310,2012-12-21 19:57:00
3:17 PM,30.2,26.6,86,29.46,1.2,NW,13.8,24.2,N/A,Snow,Light Snow,310,2012-12-21 20:17:00
3:37 PM,30.2,26.6,86,29.48,1.8,NW,17.3,23.0,N/A,Snow,Light Snow,310,2012-12-21 20:37:00
3:57 PM,30.2,26.6,86,29.49,2.5,WNW,16.1,25.3,N/A,Snow,Light Snow,300,2012-12-21 20:57:00
4:17 PM,30.2,26.6,86,29.51,2.0,NW,15.0,24.2,N/A,Snow,Light Snow,320,2012-12-21 21:17:00
4:37 PM,30.2,28.4,93,29.52,1.0,NW,16.1,26.5,N/A,Snow,Light Snow,310,2012-12-21 21:37:00
4:57 PM,30.2,26.6,86,29.53,5.0,NW,20.7,31.1,N/A,,Overcast,320,2012-12-21 21:57:00
5:17 PM,32.0,26.6,80,29.55,10.0,NW,20.7,32.2,N/A,,Overcast,310,2012-12-21 22:17:00
5:37 PM,32.0,26.6,80,29.56,10.0,NW,16.1,28.8,N/A,Snow,Light Snow,320,2012-12-21 22:37:00
5:57 PM,32.0,26.6,80,29.58,5.0,NW,19.6,32.2,N/A,Snow,Light Snow,320,2012-12-21 22:57:00
6:17 PM,32.0,26.6,80,29.59,4.0,NW,16.1,28.8,N/A,Snow,Light Snow,320,2012-12-21 23:17:00
6:37 PM,32.0,26.6,80,29.61,5.0,NW,16.1,29.9,N/A,Snow,Light Snow,310,2012-12-21 23:37:00
6:57 PM,32.0,26.6,80,29.62,10.0,NW,18.4,33.4,N/A,,Overcast,310,2012-12-21 23:57:00
7:17 PM,32.0,26.6,80,29.63,10.0,NW,20.7,36.8,N/A,,Overcast,320,2012-12-22 00:17:00
7:37 PM,32.0,26.6,80,29.64,10.0,NW,18.4,29.9,N/A,,Overcast,320,2012-12-22 00:37:00
7:57 PM,32.0,26.6,80,29.65,7.0,NW,25.3,34.5,N/A,Snow,Light Snow,310,2012-12-22 00:57:00
8:17 PM,32.0,24.8,75,29.66,10.0,NW,20.7,28.8,N/A,,Overcast,310,2012-12-22 01:17:00
8:37 PM,32.0,24.8,75,29.67,10.0,WNW,19.6,26.5,N/A,,Overcast,300,2012-12-22 01:37:00
8:57 PM,32.0,24.8,75,29.68,10.0,NW,18.4,33.4,N/A,,Overcast,320,2012-12-22 01:57:00
9:17 PM,32.0,24.8,75,29.68,10.0,NW,15.0,36.8,N/A,,Overcast,310,2012-12-22 02:17:00
9:37 PM,32.0,24.8,75,29.69,10.0,NW,24.2,41.4,N/A,,Overcast,320,2012-12-22 02:37:00
9:57 PM,32.0,24.8,75,29.71,10.0,NW,20.7,28.8,N/A,,Overcast,320,2012-12-22 02:57:00
10:17 PM,32.0,24.8,75,29.71,10.0,NW,23.0,31.1,N/A,,Overcast,320,2012-12-22 03:17:00
10:37 PM,32.0,24.8,75,29.73,10.0,NW,16.1,31.1,N/A,,Overcast,310,2012-12-22 03:37:00
10:57 PM,32.0,24.8,75,29.74,10.0,NW,16.1,26.5,N/A,,Overcast,310,2012-12-22 03:57:00
11:17 PM,32.0,24.8,75,29.74,10.0,NW,20.7,31.1,N/A,,Overcast,310,2012-12-22 04:17:00
11:37 PM,32.0,24.8,75,29.76,10.0,NW,17.3,33.4,N/A,,Overcast,310,2012-12-22 04:37:00
11:57 PM,32.0,24.8,75,29.76,10.0,NW,17.3,26.5,N/A,,Overcast,310,2012-12-22 04:57:00